Lusaka, Zambia

5:50 PM CAT on April 20, 2018 (GMT +0200)
Lusaka

Weather History for FLLS - October, 2012

Change the Weather History Date:

Wednesday, October 24, 2012

  Actual Average Record
Temperature  
Mean Temperature 79 °F -  
Max Temperature 89 °F 84 °F 98 °F (2011)
Min Temperature 69 °F 67 °F 32 °F (2008)
Cooling Degree Days 14    
Growing Degree Days 29 (Base 50)    
Moisture  
Dew Point 61 °F    
Average Humidity 56    
Maximum Humidity 88    
Minimum Humidity 28    
Precipitation  
Precipitation 0.00 in 0.10 in - ()
Sea Level Pressure  
Sea Level Pressure 30.06 in    
Wind  
Wind Speed 12 mph ()    
Max Wind Speed 21 mph    
Max Gust Speed -    
Visibility 5.8 miles    
Events      
Averages and records for this station are not official NWS values.
T = Trace of Precipitation, MM = Missing Value Source: Averaged Metar Reports

Daily Weather History Graph

Daily Weather History Graph

Search for Another Location

Airport or City:

Astronomy

Oct. 24, 2012 Rise Set
Actual Time 5:33 AM CAT 6:07 PM CAT
Civil Twilight 5:11 AM CAT 6:29 PM CAT
Nautical Twilight 4:45 AM CAT 6:55 PM CAT
Astronomical Twilight 4:19 AM CAT 7:21 PM CAT
Moon 1:49 PM CAT (10/24) 1:42 AM CAT (10/24)
Length of Visible Light 13h 17m
Length of Day
12h 33m
Waxing Gibbous, 73% of the Moon is Illuminated
Oct 24
Waxing Gibbous
Oct 29
Full
Nov 7
Last Quarter
Nov 14
New
Nov 20
First Quarter

Hourly Weather History & Observations

Time (CAT) Temp. Heat Index Dew Point Humidity Pressure Visibility Wind Dir Wind Speed Gust Speed Precip Events Conditions
12:00 AM 73.4 °F - 60.8 °F 65% 30.04 in - SE 17.3 mph - N/A   Clear
1:00 AM 71.6 °F - 60.8 °F 69% 30.01 in - SE 11.5 mph - N/A   Clear
2:00 AM 69.8 °F - 60.8 °F 73% 30.01 in - SE 9.2 mph - N/A   Clear
4:00 AM 69.8 °F - 64.4 °F 83% 30.01 in - SE 15.0 mph - N/A   Clear
5:00 AM 69.8 °F - 66.2 °F 88% 30.04 in - ESE 12.7 mph - N/A   Clear
6:00 AM 69.8 °F - 66.2 °F 88% 30.06 in - ESE 6.9 mph - N/A   Clear
7:00 AM 73.4 °F - 64.4 °F 73% 30.09 in - ESE 10.4 mph - N/A   Clear
8:00 AM 77.0 °F - 62.6 °F 61% 30.09 in 5.6 mi East 20.7 mph - N/A   Haze
9:00 AM 80.6 °F 81.5 °F 60.8 °F 51% 30.12 in 5.6 mi ESE 17.3 mph - N/A   Haze
10:00 AM 80.6 °F 81.1 °F 59.0 °F 48% 30.09 in - East 18.4 mph - N/A   Clear
11:00 AM 82.4 °F 82.5 °F 59.0 °F 45% 30.09 in - ENE 18.4 mph - N/A   Clear
12:00 PM 84.2 °F 83.8 °F 59.0 °F 42% 30.06 in - East 17.3 mph - N/A   Clear
1:00 PM 86.0 °F 86.1 °F 60.8 °F 43% 30.04 in - East 11.5 mph - N/A   Clear
2:00 PM 87 °F - 59 °F 28%  in 6 mi ESE 16.1 mph - -   Haze
2:00 PM 86.0 °F 85.4 °F 59.0 °F 40% 30.04 in - ESE 16.1 mph - N/A   Clear
3:00 PM 87.8 °F 87.1 °F 59.0 °F 38% 30.01 in - ENE 11.5 mph - N/A   Clear
4:00 PM 87.8 °F 86.5 °F 57.2 °F 35% 30.01 in - SE 12.7 mph - N/A   Clear
5:00 PM 86.0 °F 84.9 °F 57.2 °F 37% 30.01 in - ESE 11.5 mph - N/A   Clear
6:00 PM 82.4 °F 84.6 °F 66.2 °F 58% 30.04 in - East 12.7 mph - N/A   Clear
7:00 PM 78.8 °F - 60.8 °F 54% 30.06 in - East 13.8 mph - N/A   Clear
8:00 PM 78 °F - 61 °F 47%  in 6 mi SSE 10.4 mph - -   Haze
8:00 PM 77.0 °F - 60.8 °F 57% 30.09 in - SSE 10.4 mph - N/A   Clear
9:00 PM 75.2 °F - 62.6 °F 65% 30.09 in - ESE 8.1 mph - N/A   Clear
10:00 PM 73.4 °F - 60.8 °F 65% 30.12 in - ESE 6.9 mph - N/A   Clear